Showing default

BEIDOU 3G1, 43683

Orbit data source: Space-Track

BEIDOU 3G1, 43683 is a payload satellite owned by CNSA (CN) in GEO that was launched on Thu, 01 Nov 2018 UTC via a CHANG ZHENG 3B launch vehicle from the Xichang Space Center, China (XSC). Payload-class satellites include a variety of spacecraft equipped with specific instruments for various scientific and technological missions. These include communications satellites like Starlink; space stations such as the ISS; scientific satellites like the Hubble; Earth observation satellites from companies like Planet Labs, Umbra, and HawkEye 360; GPS; miniature CubeSats for education and research; and military/defense satellites.

Not visible in the next 10 days
Identifier
43683, 2018-085A
Orbit
GEO
Country
Flag of CNCN / PRC
Related business
Manufacturer
CAST
Mission
Operational Defense Navigation
Bus & Motor
DFH-3B, FY-25
Mass
~3,060 kg wet, 1,700 kg dry
Launch date (UTC)
2018-11-01 (8 years ago)
Launch vehicle
CHANG ZHENG 3B
Launch site
Xichang Space Center, China (XSC)
Object type
Payload
Rocket body
Debris
Shape & HBR
Box + 2 Pan, 9.0 m
Radar Cross Section
13.998 m², Large (>1 m²)

Expand to show TLE details & history
Last TLE update: 23 hours ago

TLE from 23 hours ago
0 BEIDOU 3G1
1 43683U 18085A   26172.50531091 -.00000111  00000-0  00000+0 0  9991
2 43683   2.8805  97.2530 0008152 350.3805 163.9159  1.00270433 28100
Epoch: 2026-06-21T12:07Z
TLE epoch observation values (Epoch: 2026-06-21T12:07:38.862Z)
Latitude
1.23041°
Longitude
160.00185°
Altitude
35,819.478 km
Speed
3.072 km/s
True Right ascension
16h 46m 28s
True Declination
1° 13' 45"
Sunlit
Object was in daylight at epoch
Visualization orbit readout
Latitude
Unknown
Longitude
Unknown
Altitude
Unknown
Speed
Unknown
Apparent Right ascension
Unknown
Apparent Declination
Unknown
Sunlit
N/A
Visualization observer readout
Local Sidereal Time
21:40:00
Azimuth
Unknown
Elevation
Unknown
Doppler factor
Unknown
Orbital elements
Apogee altitude
35,822.414 km
Perigee altitude
35,753.667 km
Semi-major axis
42,166.177 km
Eccentricity
0.00082
Inclination
2.8805°
RAAN
97.253°
Arg. of periapsis
350.3805°
True anomaly
163.94176°
Mean anomaly
163.9159°
Eccentric anomaly
163.92883°
Mean motion
0.25067 °/min
Orbital period
1,436.17 mins
BSTAR
0
Loading maneuver chart data...
Computing Atmospheric mass density...
Loading historical data...
Loading historical data...
Loading historical data...
Loading historical data...
Loading historical data...
Loading historical data...
Loading historical data...
Other satellites on launch #85 in the year 2018 (2018-11-01 UTC)

Documentation

Showing up to 5 results
|